Total_Precipitation_Accumulation
0.03 0.03 0.03 0.04 0.04 0.03 0.03 0.03 0.02 0.02 0.01 0.02 0.02 0.02 0.02 0.03 0.03 0.02 0.02 0.02 0.02 0.02 0.04 0.02 0.02 0.02 0.01 0.02 0.00 0.00 0.00 0.01 0.00 0.00 0.00 0.00 0.00 0.00 0.00 0.00 0.00 0.00 0.00 0.00 0.00 0.00 0.00 0.00 0.00 0.00 0.00 0.00 0.00 0.00 0.00 0.00 0.00 0.00 0.00 0.00 0.00 0.00 0.00 0.00 0.00 0.00 0.00 0.00 0.00 0.00 0.00 0.00 0.00 0.00 0.00 0.00 0.00 0.00 0.00 0.00 0.01 0.01 0.04 0.06 0.04 0.11 0.04 0.07
0.04 0.03 0.03 0.04 0.03 0.03 0.02 0.02 0.01 0.02 0.01 0.01 0.01 0.02 0.02 0.02 0.04 0.03 0.02 0.02 0.02 0.02 0.01 0.02 0.01 0.01 0.01 0.00 0.00 0.00 0.00 0.00 0.00 0.00 0.00 0.00 0.00 0.00 0.00 0.00 0.00 0.00 0.00 0.00 0.00 0.00 0.00 0.00 0.00 0.00 0.00 0.00 0.00 0.00 0.00 0.00 0.00 0.00 0.00 0.00 0.00 0.00 0.00 0.00 0.00 0.00 0.00 0.00 0.00 0.00 0.00 0.00 0.00 0.00 0.00 0.01 0.00 0.00 0.00 0.01 0.01 0.02 0.10 0.08 0.13 0.10 0.07 0.08
0.03 0.03 0.04 0.03 0.02 0.02 0.02 0.01 0.01 0.01 0.02 0.02 0.02 0.03 0.03 0.02 0.02 0.03 0.02 0.02 0.02 0.01 0.01 0.00 0.01 0.00 0.00 0.00 0.00 0.00 0.00 0.00 0.00 0.00 0.00 0.00 0.00 0.00 0.00 0.00 0.00 0.00 0.00 0.00 0.00 0.00 0.00 0.00 0.00 0.00 0.00 0.00 0.00 0.00 0.00 0.00 0.00 0.00 0.00 0.00 0.00 0.00 0.00 0.00 0.00 0.00 0.00 0.00 0.00 0.00 0.00 0.00 0.00 0.00 0.00 0.01 0.01 0.00 0.00 0.03 0.02 0.04 0.16 0.13 0.16 0.10 0.12 0.20
0.04 0.03 0.03 0.03 0.02 0.02 0.02 0.01 0.01 0.02 0.03 0.03 0.03 0.03 0.03 0.02 0.01 0.01 0.02 0.02 0.01 0.01 0.01 0.00 0.00 0.00 0.00 0.00 0.00 0.00 0.00 0.00 0.00 0.00 0.00 0.00 0.00 0.00 0.00 0.00 0.00 0.00 0.00 0.00 0.00 0.00 0.00 0.00 0.00 0.00 0.00 0.00 0.00 0.00 0.00 0.00 0.00 0.00 0.00 0.00 0.00 0.00 0.00 0.00 0.00 0.00 0.00 0.00 0.00 0.00 0.00 0.00 0.00 0.00 0.00 0.00 0.00 0.03 0.01 0.00 0.03 0.02 0.06 0.16 0.17 0.21 0.11 0.15
0.03 0.03 0.03 0.02 0.02 0.02 0.01 0.01 0.01 0.02 0.02 0.03 0.03 0.02 0.02 0.01 0.01 0.01 0.01 0.01 0.01 0.00 0.01 0.01 0.00 0.00 0.00 0.00 0.00 0.00 0.00 0.00 0.00 0.00 0.00 0.00 0.00 0.00 0.00 0.00 0.00 0.00 0.00 0.00 0.00 0.00 0.00 0.00 0.00 0.00 0.00 0.00 0.00 0.00 0.00 0.00 0.00 0.00 0.00 0.00 0.00 0.00 0.00 0.00 0.00 0.00 0.00 0.00 0.00 0.00 0.00 0.00 0.00 0.00 0.00 0.00 0.00 0.01 0.00 0.03 0.00 0.03 0.02 0.09 0.15 0.15 0.09 0.20
0.03 0.03 0.02 0.03 0.03 0.02 0.02 0.02 0.02 0.02 0.02 0.02 0.02 0.01 0.01 0.01 0.01 0.01 0.01 0.01 0.01 0.01 0.01 0.01 0.00 0.00 0.00 0.00 0.00 0.00 0.00 0.00 0.00 0.00 0.00 0.00 0.00 0.00 0.00 0.00 0.00 0.00 0.00 0.00 0.00 0.00 0.00 0.00 0.00 0.00 0.00 0.00 0.00 0.00 0.00 0.00 0.00 0.00 0.00 0.00 0.00 0.00 0.00 0.00 0.00 0.00 0.00 0.00 0.00 0.00 0.00 0.00 0.00 0.00 0.00 0.00 0.00 0.00 0.00 0.00 0.00 0.00 0.03 0.05 0.07 0.09 0.18 0.24
0.02 0.02 0.02 0.03 0.02 0.02 0.02 0.02 0.02 0.02 0.02 0.01 0.02 0.02 0.01 0.02 0.02 0.01 0.01 0.01 0.01 0.01 0.01 0.01 0.00 0.00 0.00 0.00 0.00 0.00 0.00 0.00 0.00 0.00 0.00 0.00 0.00 0.00 0.00 0.00 0.00 0.00 0.00 0.00 0.00 0.00 0.00 0.00 0.00 0.00 0.00 0.00 0.00 0.00 0.00 0.00 0.00 0.00 0.00 0.00 0.00 0.00 0.00 0.00 0.00 0.00 0.00 0.00 0.00 0.00 0.00 0.00 0.00 0.00 0.00 0.00 0.00 0.00 0.00 0.00 0.01 0.03 0.09 0.07 0.10 0.07 0.08 0.13
0.02 0.02 0.02 0.02 0.02 0.02 0.02 0.02 0.01 0.01 0.01 0.01 0.02 0.02 0.02 0.01 0.01 0.01 0.00 0.00 0.00 0.01 0.01 0.00 0.00 0.00 0.00 0.00 0.00 0.00 0.00 0.00 0.00 0.00 0.00 0.00 0.00 0.00 0.00 0.00 0.00 0.00 0.00 0.00 0.00 0.00 0.00 0.00 0.00 0.00 0.00 0.00 0.00 0.00 0.00 0.00 0.00 0.00 0.00 0.00 0.00 0.00 0.00 0.00 0.00 0.00 0.00 0.00 0.00 0.00 0.00 0.00 0.00 0.00 0.00 0.00 0.00 0.00 0.00 0.00 0.01 0.01 0.04 0.08 0.07 0.11 0.22 0.29
0.02 0.01 0.02 0.02 0.02 0.01 0.02 0.01 0.01 0.00 0.01 0.01 0.01 0.01 0.01 0.00 0.00 0.01 0.01 0.00 0.00 0.01 0.00 0.01 0.00 0.00 0.00 0.00 0.00 0.00 0.00 0.00 0.00 0.00 0.00 0.00 0.00 0.00 0.00 0.00 0.00 0.00 0.00 0.00 0.00 0.00 0.00 0.00 0.00 0.00 0.00 0.00 0.00 0.00 0.00 0.00 0.00 0.00 0.00 0.00 0.00 0.00 0.00 0.00 0.00 0.00 0.00 0.00 0.00 0.00 0.00 0.00 0.00 0.00 0.00 0.00 0.00 0.00 0.00 0.00 0.01 0.03 0.08 0.09 0.11 0.16 0.23 0.32
0.01 0.02 0.01 0.01 0.01 0.01 0.01 0.00 0.01 0.02 0.02 0.02 0.01 0.01 0.01 0.01 0.01 0.01 0.00 0.01 0.00 0.00 0.01 0.00 0.00 0.00 0.00 0.00 0.00 0.00 0.00 0.00 0.00 0.00 0.00 0.00 0.00 0.00 0.00 0.00 0.00 0.00 0.00 0.00 0.00 0.00 0.00 0.00 0.00 0.00 0.00 0.00 0.00 0.00 0.00 0.00 0.00 0.00 0.00 0.00 0.00 0.00 0.00 0.00 0.00 0.00 0.00 0.00 0.00 0.00 0.00 0.00 0.00 0.00 0.00 0.00 0.00 0.00 0.00 0.01 0.02 0.02 0.07 0.11 0.10 0.18 0.32 0.10
0.01 0.01 0.01 0.01 0.01 0.00 0.00 0.01 0.01 0.01 0.01 0.01 0.01 0.01 0.01 0.00 0.00 0.00 0.00 0.00 0.00 0.00 0.01 0.00 0.00 0.00 0.00 0.00 0.00 0.00 0.00 0.00 0.00 0.00 0.00 0.00 0.00 0.00 0.00 0.00 0.00 0.00 0.00 0.00 0.00 0.00 0.00 0.00 0.00 0.00 0.00 0.00 0.00 0.00 0.00 0.00 0.00 0.00 0.00 0.00 0.00 0.00 0.00 0.00 0.00 0.00 0.00 0.00 0.00 0.00 0.00 0.00 0.00 0.00 0.00 0.00 0.00 0.00 0.00 0.01 0.03 0.03 0.11 0.13 0.09 0.12 0.15 0.13
0.01 0.01 0.00 0.00 0.00 0.00 0.01 0.01 0.01 0.01 0.01 0.01 0.01 0.02 0.01 0.01 0.01 0.01 0.00 0.00 0.00 0.00 0.00 0.00 0.01 0.01 0.00 0.00 0.00 0.00 0.00 0.00 0.00 0.00 0.00 0.00 0.00 0.00 0.00 0.00 0.00 0.00 0.00 0.00 0.00 0.00 0.00 0.00 0.00 0.00 0.00 0.00 0.00 0.00 0.00 0.00 0.00 0.00 0.00 0.00 0.00 0.00 0.00 0.00 0.00 0.00 0.00 0.00 0.00 0.00 0.00 0.00 0.00 0.00 0.00 0.00 0.01 0.00 0.00 0.02 0.03 0.03 0.09 0.11 0.13 0.16 0.16 0.14
0.01 0.01 0.01 0.00 0.00 0.00 0.00 0.00 0.00 0.00 0.00 0.01 0.00 0.00 0.00 0.00 0.00 0.00 0.00 0.00 0.00 0.00 0.00 0.00 0.00 0.00 0.00 0.00 0.00 0.00 0.00 0.00 0.00 0.00 0.00 0.00 0.00 0.00 0.00 0.00 0.00 0.00 0.00 0.00 0.00 0.00 0.00 0.00 0.00 0.00 0.00 0.00 0.00 0.00 0.00 0.00 0.00 0.00 0.00 0.00 0.00 0.00 0.00 0.00 0.00 0.00 0.00 0.00 0.00 0.00 0.00 0.00 0.00 0.00 0.00 0.01 0.01 0.01 0.01 0.03 0.06 0.05 0.06 0.09 0.14 0.32 0.30 0.34
0.01 0.01 0.00 0.00 0.00 0.00 0.00 0.00 0.00 0.00 0.00 0.00 0.00 0.00 0.00 0.00 0.00 0.00 0.00 0.00 0.00 0.01 0.00 0.01 0.01 0.00 0.00 0.00 0.00 0.00 0.00 0.00 0.00 0.00 0.00 0.00 0.00 0.00 0.00 0.00 0.00 0.00 0.00 0.00 0.00 0.00 0.00 0.00 0.00 0.00 0.00 0.00 0.00 0.00 0.00 0.00 0.00 0.00 0.00 0.00 0.00 0.00 0.00 0.00 0.00 0.00 0.00 0.00 0.00 0.00 0.00 0.00 0.00 0.00 0.00 0.01 0.00 0.00 0.01 0.02 0.05 0.06 0.06 0.10 0.16 0.25 0.29 0.39
0.01 0.00 0.00 0.00 0.00 0.00 0.00 0.00 0.00 0.00 0.00 0.00 0.00 0.00 0.00 0.00 0.00 0.00 0.01 0.01 0.01 0.00 0.01 0.01 0.01 0.00 0.00 0.00 0.00 0.00 0.00 0.00 0.00 0.00 0.00 0.00 0.00 0.00 0.00 0.00 0.00 0.00 0.00 0.00 0.00 0.00 0.00 0.00 0.00 0.00 0.00 0.00 0.00 0.00 0.00 0.00 0.00 0.00 0.00 0.00 0.00 0.00 0.00 0.00 0.00 0.00 0.00 0.00 0.00 0.00 0.00 0.00 0.00 0.00 0.00 0.01 0.01 0.01 0.00 0.02 0.04 0.05 0.06 0.13 0.11 0.25 0.19 0.36
0.00 0.00 0.00 0.00 0.00 0.00 0.00 0.00 0.00 0.00 0.00 0.00 0.00 0.00 0.00 0.01 0.01 0.00 0.00 0.00 0.01 0.01 0.01 0.00 0.00 0.00 0.00 0.00 0.00 0.00 0.00 0.00 0.00 0.00 0.00 0.00 0.00 0.00 0.00 0.00 0.00 0.00 0.00 0.00 0.00 0.00 0.00 0.00 0.00 0.00 0.00 0.00 0.00 0.00 0.00 0.00 0.00 0.00 0.00 0.00 0.00 0.00 0.00 0.00 0.00 0.00 0.00 0.00 0.00 0.00 0.00 0.00 0.00 0.00 0.00 0.01 0.01 0.01 0.01 0.02 0.03 0.04 0.06 0.12 0.14 0.09 0.11 0.20
0.00 0.00 0.00 0.00 0.00 0.00 0.00 0.00 0.00 0.00 0.00 0.00 0.00 0.00 0.01 0.00 0.00 0.00 0.01 0.01 0.01 0.02 0.00 0.00 0.00 0.00 0.01 0.00 0.00 0.00 0.00 0.00 0.00 0.00 0.00 0.00 0.00 0.00 0.00 0.00 0.00 0.00 0.00 0.00 0.00 0.00 0.00 0.00 0.00 0.00 0.00 0.00 0.00 0.00 0.00 0.00 0.00 0.00 0.00 0.00 0.00 0.00 0.00 0.01 0.00 0.00 0.00 0.00 0.00 0.00 0.00 0.00 0.00 0.00 0.00 0.02 0.01 0.01 0.01 0.02 0.04 0.05 0.09 0.08 0.09 0.12 0.09 0.08
0.00 0.00 0.00 0.00 0.00 0.00 0.00 0.00 0.00 0.00 0.00 0.00 0.00 0.01 0.00 0.00 0.01 0.00 0.01 0.01 0.01 0.01 0.00 0.00 0.00 0.00 0.00 0.00 0.00 0.00 0.00 0.00 0.00 0.00 0.00 0.00 0.00 0.00 0.00 0.00 0.00 0.00 0.00 0.00 0.00 0.00 0.00 0.00 0.00 0.00 0.00 0.00 0.00 0.00 0.00 0.01 0.00 0.00 0.00 0.00 0.00 0.00 0.00 0.00 0.00 0.00 0.00 0.00 0.00 0.00 0.00 0.00 0.00 0.00 0.00 0.00 0.01 0.01 0.01 0.01 0.02 0.06 0.07 0.07 0.05 0.07 0.09 0.07
0.00 0.00 0.00 0.00 0.00 0.00 0.00 0.00 0.00 0.00 0.00 0.00 0.00 0.01 0.00 0.01 0.01 0.00 0.00 0.00 0.00 0.00 0.00 0.00 0.00 0.00 0.01 0.00 0.00 0.00 0.00 0.00 0.00 0.00 0.00 0.00 0.00 0.00 0.00 0.00 0.00 0.00 0.00 0.00 0.00 0.00 0.00 0.00 0.00 0.00 0.00 0.00 0.00 0.00 0.00 0.00 0.00 0.00 0.00 0.00 0.00 0.00 0.00 0.00 0.00 0.00 0.00 0.00 0.00 0.00 0.00 0.00 0.00 0.00 0.00 0.01 0.01 0.01 0.01 0.02 0.03 0.05 0.06 0.04 0.04 0.05 0.06 0.08
0.00 0.00 0.00 0.00 0.00 0.00 0.00 0.00 0.00 0.00 0.00 0.00 0.00 0.00 0.00 0.00 0.00 0.00 0.00 0.00 0.00 0.00 0.00 0.00 0.00 0.00 0.00 0.00 0.00 0.00 0.00 0.00 0.00 0.00 0.00 0.00 0.00 0.00 0.00 0.00 0.00 0.00 0.00 0.00 0.00 0.00 0.00 0.00 0.00 0.00 0.00 0.00 0.00 0.00 0.00 0.00 0.00 0.00 0.00 0.00 0.00 0.00 0.00 0.00 0.00 0.00 0.00 0.00 0.00 0.00 0.00 0.00 0.00 0.00 0.00 0.00 0.01 0.01 0.01 0.02 0.03 0.03 0.04 0.03 0.03 0.04 0.05 0.08
0.00 0.00 0.00 0.00 0.00 0.00 0.00 0.00 0.00 0.00 0.01 0.01 0.00 0.00 0.00 0.00 0.00 0.01 0.00 0.00 0.00 0.00 0.00 0.00 0.00 0.00 0.00 0.00 0.00 0.00 0.00 0.00 0.00 0.00 0.00 0.00 0.00 0.00 0.00 0.00 0.00 0.00 0.00 0.00 0.01 0.00 0.00 0.00 0.00 0.00 0.00 0.00 0.00 0.00 0.00 0.00 0.00 0.00 0.00 0.00 0.00 0.00 0.00 0.00 0.00 0.00 0.00 0.00 0.00 0.00 0.00 0.00 0.00 0.00 0.00 0.01 0.01 0.01 0.01 0.01 0.01 0.02 0.01 0.02 0.02 0.05 0.07 0.05
0.00 0.00 0.00 0.00 0.00 0.00 0.00 0.00 0.00 0.00 0.02 0.00 0.00 0.00 0.00 0.00 0.00 0.00 0.00 0.00 0.00 0.00 0.00 0.00 0.00 0.00 0.00 0.00 0.00 0.00 0.00 0.00 0.00 0.00 0.00 0.00 0.00 0.00 0.00 0.00 0.00 0.00 0.00 0.00 0.00 0.00 0.00 0.00 0.00 0.00 0.00 0.00 0.00 0.00 0.00 0.00 0.00 0.00 0.00 0.00 0.00 0.00 0.00 0.00 0.00 0.00 0.00 0.00 0.00 0.00 0.00 0.00 0.00 0.00 0.00 0.00 0.01 0.01 0.00 0.00 0.01 0.01 0.01 0.01 0.02 0.04 0.14 0.36
0.00 0.00 0.00 0.00 0.00 0.00 0.00 0.00 0.01 0.01 0.00 0.00 0.00 0.00 0.00 0.00 0.00 0.00 0.00 0.00 0.00 0.00 0.00 0.00 0.00 0.00 0.00 0.00 0.00 0.00 0.00 0.00 0.00 0.00 0.00 0.00 0.00 0.00 0.00 0.00 0.00 0.00 0.00 0.00 0.00 0.00 0.00 0.00 0.00 0.00 0.00 0.00 0.00 0.00 0.00 0.00 0.00 0.00 0.00 0.00 0.00 0.00 0.00 0.04 0.00 0.00 0.00 0.00 0.00 0.00 0.00 0.00 0.00 0.00 0.00 0.00 0.00 0.01 0.01 0.00 0.01 0.01 0.00 0.01 0.02 0.02 0.06 0.05
0.00 0.00 0.00 0.00 0.00 0.00 0.00 0.00 0.01 0.01 0.00 0.00 0.00 0.00 0.00 0.00 0.00 0.00 0.00 0.00 0.01 0.00 0.00 0.00 0.00 0.00 0.00 0.00 0.00 0.00 0.00 0.00 0.00 0.00 0.00 0.00 0.00 0.00 0.00 0.00 0.00 0.00 0.00 0.00 0.00 0.00 0.01 0.01 0.00 0.00 0.00 0.00 0.00 0.00 0.00 0.00 0.00 0.00 0.00 0.00 0.00 0.00 0.01 0.00 0.04 0.00 0.00 0.00 0.00 0.00 0.00 0.00 0.00 0.00 0.00 0.00 0.00 0.00 0.00 0.01 0.01 0.01 0.00 0.01 0.03 0.09 0.06 0.08
0.00 0.00 0.00 0.00 0.00 0.00 0.00 0.00 0.00 0.00 0.00 0.00 0.00 0.00 0.00 0.00 0.00 0.00 0.00 0.00 0.00 0.00 0.00 0.00 0.00 0.00 0.00 0.00 0.00 0.00 0.00 0.00 0.00 0.00 0.00 0.00 0.00 0.00 0.00 0.00 0.00 0.00 0.00 0.00 0.00 0.00 0.00 0.01 0.01 0.00 0.00 0.00 0.00 0.00 0.00 0.00 0.00 0.00 0.00 0.00 0.00 0.00 0.00 0.00 0.00 0.00 0.00 0.01 0.00 0.00 0.02 0.01 0.01 0.00 0.00 0.00 0.00 0.03 0.00 0.00 0.00 0.00 0.02 0.02 0.06 0.11 0.04 0.11
0.00 0.00 0.00 0.00 0.00 0.00 0.00 0.00 0.00 0.00 0.00 0.00 0.00 0.00 0.00 0.00 0.00 0.00 0.00 0.02 0.20 0.10 0.00 0.00 0.00 0.00 0.00 0.00 0.00 0.00 0.00 0.00 0.00 0.00 0.00 0.00 0.00 0.00 0.00 0.00 0.00 0.01 0.00 0.00 0.00 0.00 0.01 0.00 0.00 0.00 0.00 0.00 0.00 0.00 0.00 0.00 0.00 0.00 0.05 0.00 0.00 0.00 0.00 0.00 0.00 0.00 0.03 0.07 0.05 0.00 0.03 0.05 0.00 0.00 0.00 0.00 0.00 0.00 0.00 0.02 0.01 0.04 0.11 0.07 0.12 0.08 0.33 0.30
0.00 0.00 0.00 0.00 0.00 0.00 0.00 0.00 0.00 0.00 0.00 0.00 0.00 0.00 0.00 0.00 0.00 0.00 0.02 0.21 0.13 0.02 0.03 0.00 0.00 0.00 0.00 0.00 0.00 0.00 0.01 0.01 0.00 0.00 0.00 0.00 0.00 0.00 0.00 0.00 0.00 0.00 0.00 0.00 0.00 0.00 0.00 0.00 0.00 0.00 0.00 0.00 0.00 0.00 0.00 0.00 0.01 0.03 0.04 0.00 0.00 0.00 0.00 0.01 0.00 0.00 0.06 0.01 0.01 0.00 0.00 0.03 0.01 0.03 0.00 0.01 0.01 0.02 0.01 0.02 0.02 0.09 0.09 0.10 0.20 0.14 0.11 0.36
0.00 0.00 0.00 0.00 0.00 0.01 0.01 0.00 0.00 0.00 0.00 0.00 0.00 0.00 0.00 0.00 0.00 0.00 0.06 0.10 0.03 0.00 0.06 0.00 0.00 0.00 0.00 0.00 0.00 0.00 0.01 0.00 0.00 0.00 0.00 0.00 0.00 0.00 0.00 0.00 0.00 0.00 0.00 0.00 0.01 0.01 0.00 0.00 0.00 0.00 0.00 0.00 0.00 0.00 0.00 0.00 0.00 0.06 0.00 0.00 0.01 0.00 0.04 0.00 0.00 0.02 0.06 0.01 0.07 0.01 0.01 0.01 0.06 0.03 0.00 0.01 0.01 0.01 0.04 0.02 0.09 0.05 0.08 0.18 0.20 0.19 0.30 0.25
0.00 0.00 0.00 0.00 0.00 0.01 0.00 0.00 0.00 0.00 0.00 0.00 0.00 0.00 0.00 0.00 0.00 0.00 0.21 0.12 0.01 0.00 0.00 0.05 0.00 0.00 0.00 0.00 0.00 0.00 0.00 0.00 0.00 0.00 0.00 0.00 0.00 0.00 0.00 0.00 0.00 0.00 0.00 0.00 0.02 0.01 0.00 0.00 0.00 0.00 0.00 0.00 0.00 0.00 0.00 0.00 0.02 0.00 0.00 0.00 0.00 0.00 0.00 0.00 0.01 0.01 0.04 0.01 0.03 0.04 0.05 0.02 0.03 0.03 0.01 0.00 0.01 0.08 0.05 0.07 0.02 0.09 0.06 0.09 0.12 0.20 0.15 0.15
0.00 0.00 0.00 0.00 0.01 0.00 0.00 0.01 0.00 0.00 0.00 0.00 0.00 0.00 0.00 0.00 0.00 0.08 0.07 0.01 0.00 0.23 0.00 0.00 0.00 0.00 0.00 0.00 0.00 0.00 0.00 0.00 0.00 0.00 0.00 0.00 0.00 0.00 0.00 0.00 0.00 0.00 0.00 0.00 0.00 0.00 0.00 0.00 0.00 0.00 0.00 0.00 0.00 0.00 0.00 0.00 0.00 0.00 0.00 0.00 0.01 0.00 0.01 0.00 0.00 0.02 0.02 0.03 0.01 0.01 0.04 0.00 0.06 0.14 0.05 0.12 0.00 0.01 0.06 0.10 0.05 0.01 0.04 0.02 0.06 0.20 0.23 0.33
0.00 0.00 0.00 0.01 0.01 0.00 0.00 0.00 0.00 0.00 0.00 0.00 0.00 0.00 0.00 0.00 0.06 0.06 0.01 0.13 0.00 0.03 0.00 0.00 0.01 0.00 0.00 0.00 0.06 0.00 0.00 0.00 0.00 0.00 0.00 0.00 0.00 0.00 0.00 0.00 0.00 0.00 0.00 0.02 0.00 0.00 0.00 0.00 0.00 0.00 0.00 0.00 0.00 0.00 0.00 0.00 0.00 0.00 0.00 0.02 0.01 0.02 0.01 0.02 0.06 0.05 0.08 0.00 0.02 0.02 0.01 0.10 0.04 0.10 0.06 0.04 0.01 0.01 0.01 0.08 0.04 0.03 0.03 0.02 0.03 0.18 0.31 0.34
0.00 0.00 0.00 0.01 0.00 0.01 0.00 0.00 0.00 0.00 0.00 0.00 0.00 0.00 0.00 0.11 0.01 0.02 0.01 0.00 0.08 0.02 0.03 0.02 0.00 0.00 0.00 0.00 0.00 0.00 0.05 0.00 0.00 0.00 0.03 0.00 0.01 0.00 0.00 0.01 0.00 0.03 0.04 0.00 0.04 0.00 0.00 0.00 0.00 0.00 0.00 0.00 0.00 0.00 0.00 0.00 0.00 0.00 0.00 0.01 0.07 0.08 0.01 0.09 0.05 0.06 0.03 0.01 0.13 0.01 0.03 0.02 0.01 0.09 0.05 0.00 0.03 0.02 0.02 0.02 0.05 0.04 0.03 0.02 0.03 0.04 0.13 0.13
0.00 0.00 0.00 0.00 0.00 0.01 0.00 0.00 0.00 0.00 0.00 0.00 0.00 0.00 0.03 0.01 0.00 0.03 0.05 0.00 0.11 0.00 0.04 0.00 0.03 0.00 0.02 0.00 0.01 0.00 0.00 0.07 0.01 0.00 0.00 0.01 0.01 0.00 0.00 0.00 0.00 0.01 0.05 0.04 0.00 0.00 0.00 0.00 0.00 0.00 0.00 0.00 0.00 0.00 0.05 0.01 0.00 0.00 0.01 0.11 0.05 0.10 0.03 0.02 0.10 0.04 0.06 0.03 0.04 0.09 0.05 0.02 0.06 0.09 0.05 0.11 0.03 0.04 0.05 0.05 0.04 0.04 0.03 0.03 0.05 0.29 0.78 1.10
0.00 0.00 0.00 0.00 0.00 0.00 0.00 0.00 0.00 0.00 0.00 0.00 0.00 0.00 0.00 0.00 0.00 0.01 0.00 0.00 0.03 0.00 0.00 0.00 0.00 0.00 0.00 0.04 0.02 0.00 0.01 0.01 0.00 0.02 0.00 0.01 0.00 0.06 0.03 0.00 0.00 0.00 0.00 0.00 0.00 0.03 0.02 0.03 0.01 0.00 0.04 0.00 0.00 0.00 0.01 0.02 0.02 0.01 0.00 0.01 0.16 0.07 0.15 0.04 0.07 0.06 0.02 0.13 0.04 0.04 0.00 0.04 0.01 0.23 0.01 0.05 0.03 0.03 0.04 0.19 0.18 0.14 0.08 0.13 0.23 0.37 0.15 0.15
0.00 0.00 0.00 0.00 0.00 0.00 0.00 0.00 0.00 0.00 0.00 0.00 0.00 0.00 0.00 0.00 0.00 0.02 0.01 0.02 0.00 0.00 0.00 0.00 0.00 0.00 0.01 0.00 0.00 0.00 0.00 0.07 0.00 0.00 0.02 0.01 0.10 0.02 0.02 0.02 0.01 0.00 0.00 0.00 0.04 0.00 0.01 0.01 0.02 0.00 0.00 0.00 0.00 0.00 0.00 0.00 0.00 0.00 0.01 0.00 0.01 0.07 0.03 0.10 0.22 0.03 0.10 0.09 0.03 0.03 0.00 0.06 0.14 0.05 0.04 0.03 0.03 0.05 0.03 0.03 0.04 0.05 0.06 0.10 0.12 0.02 0.04 0.11
0.00 0.00 0.00 0.00 0.00 0.00 0.00 0.00 0.00 0.00 0.00 0.00 0.00 0.00 0.00 0.01 0.02 0.00 0.00 0.00 0.00 0.00 0.00 0.00 0.00 0.00 0.01 0.06 0.00 0.01 0.04 0.04 0.06 0.01 0.05 0.00 0.01 0.04 0.01 0.01 0.00 0.00 0.05 0.00 0.07 0.03 0.01 0.04 0.00 0.00 0.00 0.00 0.00 0.00 0.01 0.00 0.17 0.29 0.00 0.07 0.07 0.05 0.02 0.08 0.00 0.01 0.00 0.00 0.02 0.03 0.03 0.02 0.01 0.01 0.00 0.09 0.02 0.03 0.12 0.18 0.14 0.08 0.11 0.11 0.05 0.06 0.05 0.03
0.00 0.00 0.00 0.00 0.00 0.00 0.00 0.00 0.00 0.00 0.00 0.00 0.00 0.00 0.00 0.00 0.00 0.00 0.00 0.00 0.00 0.00 0.00 0.01 0.02 0.00 0.03 0.02 0.02 0.01 0.04 0.00 0.10 0.00 0.14 0.01 0.10 0.00 0.01 0.01 0.00 0.00 0.00 0.00 0.05 0.00 0.05 0.05 0.01 0.00 0.02 0.00 0.00 0.00 0.00 0.00 0.00 0.09 0.04 0.11 0.01 0.00 0.04 0.04 0.12 0.07 0.03 0.02 0.04 0.00 0.01 0.06 0.01 0.18 0.01 0.01 0.01 0.01 0.06 0.12 0.12 0.14 0.17 0.15 0.23 0.11 0.13 0.22
0.00 0.00 0.00 0.00 0.00 0.00 0.00 0.00 0.00 0.00 0.00 0.00 0.00 0.00 0.00 0.00 0.00 0.00 0.00 0.00 0.00 0.00 0.00 0.00 0.01 0.00 0.01 0.02 0.02 0.01 0.08 0.03 0.28 0.03 0.05 0.02 0.17 0.00 0.05 0.06 0.01 0.01 0.00 0.01 0.00 0.14 0.00 0.03 0.04 0.00 0.00 0.01 0.00 0.00 0.00 0.00 0.00 0.01 0.05 0.03 0.03 0.17 0.10 0.08 0.01 0.02 0.04 0.01 0.06 0.01 0.03 0.03 0.05 0.09 0.02 0.06 0.05 0.02 0.04 0.08 0.12 0.11 0.12 0.11 0.11 0.48 0.71 0.91
0.00 0.00 0.06 0.00 0.00 0.00 0.00 0.00 0.00 0.00 0.00 0.02 0.00 0.01 0.00 0.00 0.00 0.00 0.00 0.00 0.00 0.00 0.00 0.00 0.01 0.00 0.00 0.02 0.01 0.00 0.01 0.14 0.06 0.10 0.08 0.19 0.05 0.08 0.15 0.01 0.08 0.00 0.00 0.00 0.02 0.01 0.01 0.01 0.04 0.00 0.00 0.03 0.00 0.00 0.02 0.03 0.00 0.00 0.00 0.00 0.03 0.02 0.04 0.13 0.09 0.18 0.02 0.07 0.02 0.03 0.02 0.15 0.03 0.24 0.09 0.18 0.05 0.11 0.07 0.04 0.22 0.17 0.32 0.40 0.30 0.34 0.43 0.94
0.00 0.03 0.17 0.00 0.00 0.00 0.00 0.00 0.00 0.00 0.00 0.01 0.02 0.02 0.00 0.01 0.01 0.00 0.00 0.00 0.02 0.00 0.00 0.00 0.00 0.01 0.00 0.00 0.00 0.02 0.01 0.01 0.06 0.23 0.05 0.48 0.06 0.03 0.08 0.01 0.04 0.01 0.00 0.01 0.01 0.00 0.02 0.00 0.06 0.08 0.00 0.00 0.05 0.01 0.03 0.08 0.12 0.06 0.02 0.01 0.02 0.02 0.03 0.01 0.08 0.05 0.10 0.23 0.09 0.14 0.10 0.12 0.19 0.13 0.05 0.16 0.15 0.09 0.12 0.39 0.54 0.48 0.89 1.09 1.16 1.16 1.20 1.19
0.00 0.03 0.04 0.00 0.00 0.00 0.00 0.00 0.00 0.02 0.02 0.00 0.00 0.00 0.00 0.00 0.00 0.00 0.00 0.00 0.00 0.00 0.00 0.00 0.00 0.01 0.00 0.00 0.01 0.00 0.00 0.00 0.03 0.15 0.03 0.10 0.08 0.26 0.00 0.06 0.00 0.03 0.00 0.02 0.01 0.08 0.00 0.00 0.00 0.00 0.02 0.02 0.02 0.00 0.03 0.00 0.04 0.04 0.08 0.11 0.07 0.16 0.25 0.21 0.30 0.02 0.10 0.15 0.12 0.06 0.11 0.15 0.30 0.06 0.10 0.13 0.19 0.19 0.17 0.31 0.47 0.50 0.12 0.11 0.21 0.05 0.10 0.10
0.01 0.05 0.08 0.00 0.00 0.00 0.00 0.05 0.05 0.05 0.02 0.02 0.03 0.00 0.01 0.00 0.00 0.00 0.00 0.00 0.00 0.01 0.00 0.00 0.00 0.00 0.00 0.00 0.00 0.00 0.00 0.01 0.01 0.07 0.08 0.18 0.22 0.15 0.05 0.01 0.01 0.02 0.02 0.09 0.06 0.12 0.08 0.05 0.02 0.00 0.02 0.22 0.02 0.05 0.00 0.00 0.00 0.02 0.01 0.12 0.01 0.09 0.11 0.18 0.21 0.27 0.15 0.14 0.14 0.17 0.18 0.26 0.07 0.10 0.17 0.10 0.20 0.13 0.30 0.29 0.37 0.36 0.36 0.77 0.19 0.09 0.15 0.16
0.08 0.03 0.00 0.00 0.00 0.00 0.01 0.06 0.02 0.04 0.10 0.05 0.03 0.01 0.00 0.00 0.00 0.00 0.01 0.01 0.01 0.00 0.00 0.00 0.00 0.00 0.00 0.00 0.00 0.00 0.00 0.00 0.00 0.05 0.05 0.07 0.04 0.04 0.04 0.02 0.03 0.01 0.00 0.07 0.00 0.12 0.01 0.02 0.02 0.01 0.07 0.06 0.01 0.00 0.00 0.00 0.00 0.01 0.01 0.01 0.06 0.12 0.10 0.19 0.29 0.27 0.11 0.13 0.12 0.11 0.09 0.23 0.11 0.08 0.25 0.34 0.27 0.16 0.44 0.55 0.48 0.12 0.08 0.08 0.08 0.09 0.08 0.10
0.00 0.03 0.03 0.00 0.00 0.01 0.04 0.18 0.15 0.06 0.05 0.10 0.03 0.01 0.01 0.01 0.00 0.00 0.00 0.01 0.00 0.01 0.00 0.00 0.00 0.00 0.01 0.00 0.00 0.00 0.01 0.00 0.03 0.00 0.03 0.02 0.10 0.00 0.00 0.01 0.01 0.07 0.02 0.09 0.06 0.22 0.49 0.39 0.06 0.15 0.07 0.01 0.07 0.02 0.00 0.01 0.03 0.08 0.06 0.07 0.06 0.04 0.03 0.06 0.05 0.12 0.22 0.07 0.13 0.24 0.29 0.25 0.15 0.15 0.07 0.23 0.43 0.59 0.46 0.19 0.30 0.38 0.13 0.10 0.07 0.07 0.16 0.23
0.01 0.02 0.07 0.19 0.14 0.13 0.26 0.07 0.11 0.05 0.20 0.06 0.08 0.09 0.01 0.00 0.00 0.01 0.03 0.07 0.02 0.01 0.00 0.01 0.00 0.01 0.00 0.00 0.01 0.00 0.00 0.01 0.01 0.02 0.00 0.02 0.05 0.00 0.00 0.01 0.00 0.04 0.01 0.04 0.02 0.07 0.15 0.19 0.15 0.21 0.20 0.11 0.17 0.09 0.12 0.13 0.07 0.04 0.01 0.02 0.02 0.02 0.07 0.07 0.11 0.11 0.18 0.07 0.07 0.34 0.28 0.12 0.19 0.24 0.22 0.14 0.11 0.18 0.36 0.44 0.89 0.59 0.44 0.42 0.72 1.40 0.92 0.61
0.01 0.00 0.05 0.54 0.89 0.15 0.05 0.00 0.04 0.10 0.08 0.10 0.06 0.11 0.03 0.10 0.00 0.00 0.00 0.01 0.00 0.02 0.00 0.00 0.00 0.00 0.00 0.00 0.00 0.00 0.00 0.00 0.01 0.01 0.01 0.03 0.00 0.00 0.00 0.00 0.00 0.01 0.03 0.03 0.06 0.03 0.25 0.07 0.22 0.20 0.14 0.24 0.07 0.08 0.05 0.02 0.05 0.15 0.04 0.05 0.03 0.03 0.14 0.21 0.21 0.23 0.20 0.12 0.18 0.23 0.20 0.27 0.15 0.22 0.09 0.19 0.29 0.34 0.51 0.36 0.48 0.33 0.37 0.23 0.37 0.46 0.48 0.49
0.00 0.01 0.01 0.15 0.28 0.68 0.34 0.21 0.13 0.09 0.33 0.24 0.09 0.08 0.17 0.01 0.09 0.04 0.00 0.06 0.01 0.01 0.00 0.00 0.00 0.00 0.01 0.00 0.01 0.01 0.01 0.00 0.00 0.00 0.01 0.02 0.17 0.07 0.00 0.00 0.00 0.00 0.00 0.01 0.02 0.07 0.08 0.08 0.11 0.13 0.18 0.17 0.06 0.05 0.02 0.02 0.11 0.06 0.08 0.08 0.08 0.03 0.05 0.12 0.11 0.33 0.07 0.17 0.30 0.10 0.19 0.10 0.18 0.27 0.23 0.19 0.25 0.42 0.28 0.44 0.27 0.26 0.17 0.19 0.46 0.48 0.49 0.31
0.01 0.00 0.00 0.01 0.37 0.46 0.46 0.43 0.08 0.81 0.20 0.14 0.14 0.04 0.09 0.09 0.06 0.17 0.05 0.01 0.02 0.00 0.02 0.00 0.00 0.00 0.00 0.00 0.02 0.01 0.03 0.01 0.01 0.01 0.01 0.06 0.15 0.86 0.16 0.01 0.04 0.07 0.01 0.01 0.04 0.05 0.21 0.16 0.09 0.06 0.14 0.13 0.24 0.17 0.07 0.10 0.09 0.08 0.09 0.10 0.12 0.07 0.18 0.17 0.10 0.10 0.09 0.19 0.21 0.11 0.15 0.23 0.15 0.19 0.16 0.13 0.24 0.42 0.36 0.43 0.20 0.33 0.37 0.26 0.32 0.30 0.22 0.33
0.00 0.02 0.08 0.02 0.27 0.21 0.23 0.39 0.32 0.24 0.36 0.21 0.08 0.15 0.06 0.23 0.14 0.09 0.03 0.08 0.04 0.05 0.00 0.01 0.00 0.00 0.00 0.00 0.00 0.00 0.07 0.12 0.02 0.02 0.05 0.12 0.02 0.30 0.21 0.30 0.08 0.11 0.05 0.03 0.04 0.06 0.02 0.22 0.11 0.10 0.11 0.17 0.13 0.18 0.17 0.13 0.08 0.08 0.10 0.04 0.09 0.13 0.25 0.16 0.13 0.05 0.10 0.11 0.07 0.18 0.15 0.28 0.19 0.22 0.25 0.33 0.23 0.43 0.47 0.34 0.21 0.56 1.47 0.42 0.64 0.69 0.38 0.22
0.00 0.02 0.02 0.00 0.02 0.03 0.11 0.28 0.54 0.40 0.20 0.08 0.11 0.08 0.10 0.08 0.37 0.15 0.07 0.08 0.01 0.07 0.03 0.10 0.02 0.02 0.02 0.02 0.00 0.13 0.07 0.04 0.08 0.07 0.09 0.01 0.05 0.02 0.13 0.24 0.36 0.20 0.23 0.15 0.01 0.15 0.01 0.25 0.03 0.16 0.12 0.16 0.14 0.13 0.20 0.22 0.10 0.14 0.09 0.05 0.11 0.18 0.13 0.11 0.06 0.04 0.10 0.17 0.11 0.08 0.15 0.15 0.22 0.14 0.11 0.17 0.36 0.59 0.21 1.16 0.71 0.42 0.66 0.60 0.68 0.79 0.70 0.39
0.00 0.00 0.00 0.04 0.02 0.00 0.02 0.07 0.14 0.29 0.44 0.30 0.11 0.17 0.15 0.03 0.18 0.09 0.14 0.02 0.01 0.02 0.01 0.06 0.01 0.06 0.04 0.02 0.02 0.04 0.00 0.01 0.00 0.01 0.02 0.01 0.07 0.07 0.02 0.17 0.00 0.12 0.07 0.16 0.08 0.61 0.08 0.48 0.21 0.22 0.12 0.19 0.19 0.13 0.23 0.12 0.13 0.18 0.15 0.16 0.08 0.05 0.17 0.09 0.16 0.08 0.09 0.10 0.10 0.11 0.29 0.36 0.42 0.32 0.08 0.25 0.28 0.16 0.20 0.62 0.90 0.85 0.82 0.63 0.52 0.75 0.59 0.47
0.00 0.00 0.01 0.01 0.01 0.00 0.04 0.00 0.01 0.07 0.22 0.35 0.30 0.23 0.17 0.15 0.03 0.04 0.00 0.00 0.01 0.00 0.01 0.01 0.06 0.18 0.04 0.04 0.02 0.00 0.00 0.00 0.00 0.01 0.00 0.00 0.00 0.04 0.02 0.01 0.00 0.03 0.09 0.10 0.21 0.16 0.26 0.14 0.09 0.35 0.16 0.13 0.10 0.17 0.26 0.25 0.29 0.19 0.14 0.11 0.10 0.09 0.06 0.13 0.16 0.20 0.18 0.06 0.10 0.07 0.19 0.20 0.24 0.23 0.38 0.43 0.30 0.36 0.30 0.34 0.63 0.87 1.13 1.08 0.90 0.89 0.53 0.27